Location: Praha
(50.0830°N, 14.4670°E)
Time: 21:52:15
(UTC+02:00)

ISS - Pass Details

Date: 20 September 2019
Orbit: 411 x 421 km, 51.6° (Epoch: 19 September)

Event Time Altitude Azimuth Distance (km) Brightness Sun altitude
Rises 21:23:05 0° 238° (WSW) 2,336 0.4 -21.8°
Reaches altitude 10° 21:25:12 10° 233° (SW) 1,477 -0.7 -22.1°
Enters shadow 21:26:22 20° 227° (SW) 1,018 -1.7 -22.3°
